Swanton, OH

2:25 PM EST on December 07, 2016 (GMT -0500)
Toledo Express

Weather History for KTOL - May, 2013

Change the Weather History Date:

Tuesday, May 21, 2013

  Actual Average Record
Temperature  
Mean Temperature 79 °F 61 °F  
Max Temperature 88 °F 73 °F 93 °F (1941)
Min Temperature 70 °F 50 °F 32 °F (1964)
Degree Days  
Heating Degree Days 0 5  
Month to date heating degree days 95 165  
Since 1 July heating degree days 6072 6067  
Cooling Degree Days 14 2  
Month to date cooling degree days 53 21  
Year to date cooling degree days 53 29  
Growing Degree Days 30 (Base 50)    
Moisture  
Dew Point 59 °F    
Average Humidity 56    
Maximum Humidity 79    
Minimum Humidity 32    
Precipitation  
Precipitation 0.00 in 0.12 in 0.88 in (2004)
Month to date precipitation 0.23 2.36  
Year to date precipitation 12.12 12.15  
Snow  
Snow 0.00 in 0.00 in - ()
Month to date snowfall 0.0 0.1  
Since 1 July snowfall 22.4 37.6  
Snow Depth 0.00 in    
Sea Level Pressure  
Sea Level Pressure 29.78 in    
Wind  
Wind Speed 10 mph (SSW)    
Max Wind Speed 26 mph    
Max Gust Speed 35 mph    
Visibility 10 miles    
Events      
T = Trace of Precipitation, MM = Missing Value Source: NWS Daily Summary

Daily Weather History Graph

Daily Weather History Graph

Search for Another Location

Airport or City:

Trip Planner

Search our weather history database for the weather conditions in past years. The results will help you decide how hot, cold, wet, or windy it might be!

Date:

Astronomy

May. 21, 2013 Rise Set
Actual Time 6:10 AM EDT 8:53 PM EDT
Civil Twilight 5:38 AM EDT 9:26 PM EDT
Nautical Twilight 4:57 AM EDT 10:07 PM EDT
Astronomical Twilight 4:11 AM EDT 10:53 PM EDT
Moon 5:03 PM EDT (5/21) 3:40 AM EDT (5/21)
Length of Visible Light 15h 48m
Length of Day
14h 43m
Waxing Gibbous, 84% of the Moon is Illuminated
May 21
Waxing Gibbous
May 25
Full
May 31
Last Quarter
Jun 8
New
Jun 16
First Quarter

Hourly Weather History & Observations

Time (EDT) Temp. Heat Index Dew Point Humidity Pressure Visibility Wind Dir Wind Speed Gust Speed Precip Events Conditions
12:52 AM 73.0 °F - 63.0 °F 71% 29.83 in 10.0 mi SSW 4.6 mph - N/A   Clear
1:52 AM 73.9 °F - 64.0 °F 71% 29.82 in 10.0 mi SSW 5.8 mph - N/A   Clear
2:52 AM 72.0 °F - 64.0 °F 76% 29.82 in 9.0 mi South 4.6 mph - N/A   Clear
3:52 AM 72.0 °F - 63.0 °F 73% 29.80 in 10.0 mi South 6.9 mph - N/A   Clear
4:52 AM 72.0 °F - 63.0 °F 73% 29.80 in 10.0 mi South 8.1 mph - N/A   Partly Cloudy
5:52 AM 71.1 °F - 63.0 °F 75% 29.80 in 10.0 mi South 4.6 mph - N/A   Partly Cloudy
6:52 AM 71.1 °F - 64.0 °F 78% 29.81 in 9.0 mi South 5.8 mph - N/A   Clear
7:52 AM 71.1 °F - 64.0 °F 78% 29.77 in 9.0 mi SSE 3.5 mph - N/A   Clear
8:52 AM 75.9 °F - 63.0 °F 64% 29.81 in 10.0 mi SW 11.5 mph - N/A   Clear
9:52 AM 77.0 °F - 57.0 °F 50% 29.83 in 10.0 mi SW 17.3 mph 24.2 mph N/A   Clear
10:52 AM 78.1 °F - 55.9 °F 46% 29.83 in 10.0 mi SW 16.1 mph 23.0 mph N/A   Scattered Clouds
11:52 AM 80.1 °F 80.4 °F 57.0 °F 45% 29.79 in 10.0 mi SW 9.2 mph 16.1 mph N/A   Clear
12:52 PM 81.0 °F 81.0 °F 57.0 °F 44% 29.79 in 10.0 mi SW 16.1 mph 21.9 mph N/A   Scattered Clouds
1:52 PM 82.9 °F 82.0 °F 55.0 °F 38% 29.78 in 10.0 mi SW 15.0 mph 27.6 mph N/A   Scattered Clouds
2:52 PM 86.0 °F 84.5 °F 55.0 °F 35% 29.75 in 10.0 mi WSW 13.8 mph 23.0 mph N/A   Clear
3:52 PM 86.0 °F 84.2 °F 54.0 °F 33% 29.75 in 10.0 mi SW 18.4 mph 24.2 mph N/A   Partly Cloudy
4:52 PM 86.0 °F 84.2 °F 54.0 °F 33% 29.74 in 10.0 mi SW 15.0 mph 25.3 mph N/A   Mostly Cloudy
5:52 PM 84.9 °F 83.2 °F 53.1 °F 33% 29.73 in 10.0 mi SW 16.1 mph 21.9 mph N/A   Mostly Cloudy
6:52 PM 84.9 °F 83.3 °F 54.0 °F 34% 29.72 in 10.0 mi SW 11.5 mph 20.7 mph N/A   Clear
7:52 PM 82.9 °F 82.1 °F 55.9 °F 39% 29.72 in 10.0 mi SW 6.9 mph - N/A   Mostly Cloudy
8:52 PM 81.0 °F 81.0 °F 57.0 °F 44% 29.73 in 10.0 mi SSW 6.9 mph - N/A   Clear
9:52 PM 78.1 °F - 57.9 °F 50% 29.74 in 10.0 mi SSW 4.6 mph - N/A   Clear
10:52 PM 77.0 °F - 57.0 °F 50% 29.75 in 10.0 mi SSW 6.9 mph - N/A   Clear
11:52 PM 75.9 °F - 57.9 °F 54% 29.76 in 10.0 mi SSW 6.9 mph - N/A   Clear